Terminal Aerodrome Forecast
Issued by NWS Key West, FL

Home | Current Version | Previous Version | Text Only | Print | Product List | Glossary On
Versions: 1 2 3 4 5 6 7 8 9 10 11 12 13 14 15 16 17 18 19 20 21 22 23 24 25 26 27 28 29 30 31 32 33 34 35 36 37 38 39 40 41 42 43 44
000
FTUS42 KKEY 231726
TAFEYW
TAF
KEYW 231726Z 2318/2418 32008KT P6SM SCT020 SCT045
     FM240600 30008KT P6SM SCT020 BKN045
      TEMPO 2409/2413 BKN020 OVC045
     FM241500 28010KT P6SM FEW020 SCT045=

USA.gov is the U.S. government's official web portal to all federal, state and local government web resources and services.